Location: Unspecified
(0.0000°N, 0.0000°E)
Time: 10:29:56
(UTC+00:00)

Explorer 11/Cluster Stage 4 - All Passes

Search period start: 20 April 2018 00:00
Search period end: 30 April 2018 00:00
Orbit: 467 x 1261 km, 28.8° (Epoch: 19 April)

Date Brightness Start Highest point End Pass type
(mag) Time Alt. Az. Time Alt. Az. Time Alt. Az.
20 Apr - 04:12:22 10° S 04:15:48 14° SSE 04:19:01 10° SE visible
20 Apr - 05:59:30 10° SW 06:05:48 38° SSE 06:10:56 10° E daylight
20 Apr - 07:48:56 10° WSW 07:54:39 49° NNW 07:59:11 10° NE daylight
20 Apr - 17:00:08 10° N 17:02:58 16° NNE 17:06:08 10° ENE daylight
20 Apr - 18:46:09 10° NW 18:51:23 79° NNE 18:58:04 10° ESE visible
20 Apr - 20:35:18 10° W 20:40:40 29° SSW 20:46:58 10° SSE visible
20 Apr - 22:28:49 10° SSW 22:31:03 11° SSW 22:33:21 10° S night (unlit)
21 Apr - 04:01:03 10° SSW 04:05:36 17° SSE 04:09:47 10° ESE visible
21 Apr - 05:48:43 10° SW 05:55:31 47° SSE 06:01:00 10° E daylight
21 Apr - 07:38:34 10° WSW 07:44:18 41° NNW 07:48:55 10° NE daylight
21 Apr - 16:49:33 10° NNW 16:52:41 18° NNE 16:56:15 10° ENE daylight
21 Apr - 18:36:00 10° WNW 18:41:03 84° SSW 18:47:30 10° ESE visible
21 Apr - 20:25:33 10° WSW 20:30:23 24° SSW 20:36:01 10° SSE visible
22 Apr - 03:49:54 10° SSW 03:55:21 20° SSE 04:00:17 10° ESE visible
22 Apr - 05:37:57 10° SW 05:45:11 58° SSE 05:50:59 10° ENE daylight
22 Apr - 07:28:16 10° W 07:33:56 34° NNW 07:38:35 10° NNE daylight
22 Apr - 16:39:03 10° NNW 16:42:24 22° NNE 16:46:16 10° E daylight
22 Apr - 18:25:55 10° WNW 18:30:45 67° SSW 18:36:54 10° SE visible
22 Apr - 20:15:57 10° WSW 20:20:09 20° SSW 20:24:58 10° SSE visible
23 Apr - 03:38:54 10° SSW 03:45:03 24° SSE 03:50:37 10° ESE visible
23 Apr - 05:27:16 10° SW 05:34:48 71° SSE 05:40:53 10° ENE visible
23 Apr - 07:18:00 10° W 07:23:34 29° NNW 07:28:12 10° NNE daylight
23 Apr - 16:28:37 10° NNW 16:32:07 26° NNE 16:36:12 10° E daylight
23 Apr - 18:15:55 10° WNW 18:20:29 52° SSW 18:26:14 10° SE visible
23 Apr - 20:06:34 10° SW 20:09:58 16° SSW 20:13:46 10° SSE visible
24 Apr - 01:42:08 10° S 01:44:05 11° SSE 01:46:02 10° SSE night (unlit)
24 Apr - 03:27:58 10° SSW 03:34:43 28° SSE 03:40:49 10° E visible
24 Apr - 05:16:37 10° WSW 05:24:22 85° SSE 05:30:43 10° ENE visible
24 Apr - 07:07:49 10° W 07:13:12 25° NNW 07:17:45 10° NNE daylight
24 Apr - 16:18:15 10° NNW 16:21:51 32° NNE 16:26:04 10° E daylight
24 Apr - 18:05:59 10° W 18:10:15 40° SSW 18:15:32 10° SE daylight
24 Apr - 19:57:33 10° SW 19:59:49 12° SSW 20:02:15 10° S visible
25 Apr - 01:30:35 10° S 01:33:52 13° SSE 01:37:07 10° SE night (unlit)
25 Apr - 03:17:06 10° SW 03:24:19 33° SSE 03:30:54 10° E visible
25 Apr - 05:06:00 10° WSW 05:13:55 82° NNW 05:20:28 10° NE visible
25 Apr - 06:57:42 10° W 07:02:49 22° NNW 07:07:14 10° NNE daylight
25 Apr - 16:07:56 10° NW 16:11:35 42° NNE 16:15:52 10° ESE daylight
25 Apr - 17:56:09 10° W 18:00:03 30° SSW 18:04:46 10° SE daylight
26 Apr - 01:19:25 10° S 01:23:36 15° SSE 01:27:46 10° SE night (unlit)
26 Apr - 03:06:18 10° SW 03:13:54 39° SSE 03:20:53 10° E visible
26 Apr - 04:55:27 10° WSW 05:03:26 70° NNW 05:10:10 10° NE visible
26 Apr - 06:47:40 10° WNW 06:52:27 19° NNW 06:56:41 10° NNE daylight
26 Apr - 15:57:40 10° NW 16:01:21 55° NNE 16:05:38 10° ESE daylight
26 Apr - 17:46:26 10° WSW 17:49:53 23° SSW 17:53:56 10° SSE daylight
27 Apr - 01:08:25 10° SSW 01:13:18 17° SSE 01:18:12 10° ESE night (unlit)
27 Apr - 02:55:33 10° SW 03:03:26 46° SSE 03:10:46 10° E visible
27 Apr - 04:44:58 10° WSW 04:52:56 60° NNW 04:59:47 10° NE visible
27 Apr - 06:37:44 10° WNW 06:42:06 17° NNW 06:46:02 10° N daylight
27 Apr - 15:47:29 10° NW 15:51:09 76° NNE 15:55:20 10° ESE daylight
27 Apr - 17:36:52 10° WSW 17:39:45 18° SSW 17:42:59 10° SSE daylight
28 Apr - 00:57:32 10° SSW 01:02:56 19° SSE 01:08:28 10° ESE night (unlit)
28 Apr - 02:44:52 10° SW 02:52:56 54° SSE 03:00:34 10° ENE visible
28 Apr - 04:34:32 10° WSW 04:42:25 51° NNW 04:49:21 10° NE visible
28 Apr - 06:27:54 10° WNW 06:31:45 15° NNW 06:35:18 10° N daylight
28 Apr - 13:51:09 10° N 13:52:45 12° NNE 13:54:21 10° NE daylight
28 Apr - 15:37:20 10° WNW 15:40:57 77° SSW 15:45:00 10° SE daylight
28 Apr - 17:27:37 10° SW 17:29:37 13° SSW 17:31:47 10° S daylight
29 Apr - 00:46:43 10° SSW 00:52:34 22° SSE 00:58:36 10° ESE night (unlit)
29 Apr - 02:34:14 10° SW 02:42:24 63° SSE 02:50:18 10° ENE visible
29 Apr - 04:24:10 10° W 04:31:54 44° NNW 04:38:52 10° NE visible
29 Apr - 06:18:14 10° NW 06:21:26 13° NNW 06:24:27 10° N daylight
29 Apr - 13:40:10 10° NNW 13:42:35 16° NNE 13:44:58 10° ENE daylight
29 Apr - 15:27:14 10° WNW 15:30:46 54° SSW 15:34:36 10° SE daylight
